Date String (YYYY-MM-DD hh:mm:ss) UTC,Instrument flags,Ambient pressure (hPa),Sample flow (lpm),Bypass flow (lpm),Sample temperature (°C),Ambient temperature (°C),ASC tube jacket temperature (°C),LED temperature (°C),Box temperature (°C),Sample RH (%),Span deviation,Mass concentration (μg/m³),Mass concentration (μg/m³),Mass concentration (μg/m³)
DateTimeUTC,F1_M11,P_M11,Q1_M11,Q2_M11,T1_M11,T2_M11,T3_M11,T4_M11,T5_M11,U1_M11,ZSPAN_M11,X0_M11,X2_M11,X1_M11
2023-02-18 15:00:00,,0821.3,5.01,0.00,22.0,20.3,00.0,31.0,23.6,03.5,0000.0,0003.72,0001.00,0000.63
2023-02-18 15:01:00,,0821.3,5.02,0.00,22.0,20.2,00.0,31.0,23.5,03.8,0000.0,0003.55,0001.02,0000.64
2023-02-18 15:02:00,,0821.3,5.01,0.00,22.0,20.1,00.0,31.0,23.6,03.7,0000.0,0003.56,0001.03,0000.64
2023-02-18 15:03:00,,0821.4,5.00,0.00,21.9,20.0,00.0,31.0,23.5,03.3,0000.0,0003.85,0001.04,0000.64
2023-02-18 15:04:00,,0821.4,5.01,0.00,21.9,20.0,00.0,30.9,23.5,03.9,0000.0,0002.39,0001.03,0000.64
2023-02-18 15:05:00,,0821.4,5.00,0.00,21.9,19.9,00.0,30.9,23.5,03.4,0000.0,0002.25,0001.03,0000.64
2023-02-18 15:06:00,,0821.4,4.98,0.00,21.9,19.9,00.0,30.9,23.5,03.9,0000.0,0002.29,0001.05,0000.64
2023-02-18 15:07:00,,0821.4,5.01,0.00,21.9,20.9,00.0,30.8,23.7,03.6,0000.0,0002.38,0001.08,0000.64
2023-02-18 15:08:00,,0821.3,5.01,0.00,22.0,22.2,00.0,30.8,24.0,03.7,0000.0,0002.41,0001.09,0000.64
2023-02-18 15:09:00,,0821.4,4.95,0.00,22.2,22.9,00.0,30.8,24.2,03.8,0000.0,0002.42,0001.09,0000.63
2023-02-18 15:10:00,,0821.3,4.98,0.00,22.2,22.4,00.0,30.9,24.1,03.7,0000.0,0002.48,0001.07,0000.63
2023-02-18 15:11:00,,0821.3,4.98,0.00,22.2,21.9,00.0,30.9,24.1,03.3,0000.0,0002.58,0001.06,0000.62
2023-02-18 15:12:00,,0821.3,5.00,0.00,22.2,21.5,00.0,31.0,24.0,03.8,0000.0,0002.80,0001.06,0000.62
2023-02-18 15:13:00,,0821.3,5.02,0.00,22.2,21.2,00.0,31.0,23.9,04.3,0000.0,0002.72,0001.01,0000.61
2023-02-18 15:14:00,,0821.3,4.98,0.00,22.2,20.9,00.0,31.0,23.9,03.8,0000.0,0002.35,0000.97,0000.60
2023-02-18 15:15:00,,0821.3,5.03,0.00,22.1,20.8,00.0,31.0,23.8,03.7,0000.0,0002.37,0000.99,0000.61
2023-02-18 15:16:00,,0821.3,4.97,0.00,22.1,20.6,00.0,31.0,23.7,03.7,0000.0,0002.41,0001.01,0000.61
2023-02-18 15:17:00,,0821.2,5.01,0.00,22.1,20.5,00.0,31.0,23.8,03.7,0000.0,0002.45,0001.01,0000.62
2023-02-18 15:18:00,,0821.2,5.00,0.00,22.1,20.4,00.0,31.0,23.7,03.7,0000.0,0002.43,0001.00,0000.62
2023-02-18 15:19:00,,0821.3,5.01,0.00,22.0,20.4,00.0,31.0,23.7,03.6,0000.0,0002.63,0001.07,0000.62
2023-02-18 15:20:00,,0821.3,5.00,0.00,22.0,20.3,00.0,31.0,23.7,03.7,0000.0,0002.70,0001.10,0000.63
2023-02-18 15:21:00,,0821.2,5.03,0.00,22.0,20.3,00.0,31.0,23.7,03.6,0000.0,0002.58,0001.10,0000.64
2023-02-18 15:22:00,,0821.2,5.02,0.00,22.0,20.3,00.0,31.0,23.6,03.5,0000.0,0002.42,0001.12,0000.65
2023-02-18 15:23:00,,0821.2,4.99,0.00,22.0,20.3,00.0,30.9,23.6,03.5,0000.0,0002.31,0001.18,0000.65
2023-02-18 15:24:00,,0821.1,5.00,0.00,22.0,20.3,00.0,30.9,23.6,04.1,0000.0,0002.65,0001.26,0000.65
2023-02-18 15:25:00,,0821.2,5.01,0.00,22.0,20.3,00.0,30.9,23.6,04.4,0000.0,0002.71,0001.28,0000.66
2023-02-18 15:26:00,,0821.2,4.98,0.00,22.0,21.0,00.0,30.9,23.8,03.5,0000.0,0002.50,0001.24,0000.66
2023-02-18 15:27:00,,0821.2,4.93,0.00,22.1,22.3,00.0,30.8,24.1,03.2,0000.0,0002.35,0001.18,0000.65
2023-02-18 15:28:00,,0821.2,4.97,0.00,22.3,23.3,00.0,30.8,24.3,03.5,0000.0,0002.28,0001.16,0000.64
2023-02-18 15:29:00,,0821.3,5.02,0.00,22.3,22.9,00.0,30.9,24.4,04.1,0000.0,0002.38,0001.18,0000.64
2023-02-18 15:30:00,,0821.2,4.99,0.00,22.4,22.4,00.0,31.0,24.3,04.0,0000.0,0002.18,0001.11,0000.63
2023-02-18 15:31:00,,0821.3,4.99,0.00,22.4,21.9,00.0,31.0,24.2,03.6,0000.0,0002.27,0001.10,0000.63
2023-02-18 15:32:00,,0821.2,5.01,0.00,22.4,21.6,00.0,31.1,24.2,04.2,0000.0,0002.30,0001.11,0000.63
2023-02-18 15:33:00,,0821.2,5.01,0.00,22.4,21.3,00.0,31.1,24.2,03.9,0000.0,0002.28,0001.07,0000.63
2023-02-18 15:34:00,,0821.2,5.00,0.00,22.3,21.2,00.0,31.1,24.1,04.4,0000.0,0002.14,0001.00,0000.62
2023-02-18 15:35:00,,0821.2,5.01,0.00,22.3,21.1,00.0,31.1,24.1,04.0,0000.0,0001.92,0000.97,0000.61
2023-02-18 15:36:00,,0821.2,4.99,0.00,22.3,21.0,00.0,31.1,24.1,03.4,0000.0,0001.88,0000.98,0000.61
2023-02-18 15:37:00,,0821.2,5.00,0.00,22.3,20.9,00.0,31.1,24.1,03.5,0000.0,0002.04,0001.01,0000.61
2023-02-18 15:38:00,,0821.1,4.99,0.00,22.3,20.8,00.0,31.1,24.1,03.4,0000.0,0002.21,0001.05,0000.62
2023-02-18 15:39:00,,0821.1,5.03,0.00,22.3,20.8,00.0,31.1,24.0,03.6,0000.0,0002.22,0001.05,0000.62
2023-02-18 15:40:00,,0821.1,5.01,0.00,22.3,20.8,00.0,31.1,24.0,03.8,0000.0,0002.09,0001.02,0000.63
2023-02-18 15:41:00,,0821.1,5.00,0.00,22.3,20.7,00.0,31.1,24.0,03.9,0000.0,0002.19,0001.08,0000.64
2023-02-18 15:42:00,,0821.1,5.01,0.00,22.3,20.7,00.0,31.1,24.0,04.3,0000.0,0002.22,0001.13,0000.64
2023-02-18 15:43:00,,0821.1,4.99,0.00,22.3,20.7,00.0,31.1,24.0,04.1,0000.0,0002.36,0001.14,0000.64
2023-02-18 15:44:00,,0821.2,4.99,0.00,22.2,20.6,00.0,31.1,24.0,04.0,0000.0,0002.39,0001.16,0000.65
2023-02-18 15:45:00,,0821.2,5.00,0.00,22.2,20.6,00.0,31.1,24.0,04.1,0000.0,0002.46,0001.18,0000.66
2023-02-18 15:46:00,,0821.2,4.99,0.00,22.2,20.6,00.0,31.1,23.9,04.7,0000.0,0002.51,0001.15,0000.67
2023-02-18 15:47:00,,0821.1,5.01,0.00,22.2,20.6,00.0,31.1,23.9,04.0,0000.0,0002.50,0001.15,0000.66
2023-02-18 15:48:00,,0821.2,5.00,0.00,22.2,20.5,00.0,31.1,23.9,03.5,0000.0,0002.49,0001.14,0000.67
2023-02-18 15:49:00,,0821.2,4.96,0.00,22.2,20.5,00.0,31.1,23.9,03.8,0000.0,0002.43,0001.13,0000.66
2023-02-18 15:50:00,,0821.2,5.00,0.00,22.2,20.5,00.0,31.1,23.9,03.6,0000.0,0002.33,0001.09,0000.66
2023-02-18 15:51:00,,0821.2,5.00,0.00,22.2,20.5,00.0,31.1,23.9,03.9,0000.0,0002.29,0001.08,0000.67
2023-02-18 15:52:00,,0821.1,5.00,0.00,22.2,20.5,00.0,31.1,23.9,03.7,0000.0,0002.27,0001.06,0000.67
2023-02-18 15:53:00,,0821.1,5.01,0.00,22.1,20.5,00.0,31.1,23.9,04.0,0000.0,0002.05,0000.97,0000.67
2023-02-18 15:54:00,,0821.1,5.00,0.00,22.1,20.5,00.0,31.0,23.9,03.4,0000.0,0002.06,0001.00,0000.66
2023-02-18 15:55:00,,0821.1,5.00,0.00,22.1,20.5,00.0,31.0,23.9,03.4,0000.0,0002.72,0001.01,0000.66
2023-02-18 15:56:00,,0821.2,5.00,0.00,22.1,20.8,00.0,31.0,23.9,03.1,0000.0,0002.84,0001.05,0000.66
2023-02-18 15:57:00,,0821.1,5.00,0.00,22.2,21.9,00.0,31.0,24.1,03.2,0000.0,0002.74,0001.06,0000.66
2023-02-18 15:58:00,,0821.1,4.94,0.00,22.3,22.8,00.0,31.0,24.4,03.1,0000.0,0003.00,0001.09,0000.66
2023-02-18 15:59:00,,0821.0,4.98,0.00,22.4,22.6,00.0,31.0,24.4,03.1,0000.0,0003.08,0001.12,0000.66
